sat.trackr.live / text

‹ back to catalog

GAOFEN-9 01

NORAD 40894 · 2015-047A

PAYLOAD ACTIVE UNKNOWN

§ Identity

Operator
Country
PRC
Launch date
2015-09-14
Launch site
JSC
Launch vehicle
Mass (kg)
RCS (m²)
3.68

Purposes: earth_obs

External: N2YO · Heavens-Above · Gunter

§ Orbital elements

Epoch: 2026-09-13T04:24:54.677088Z

Period
97.10 min
Inclination
97.6224°
Eccentricity
0.0026497
Mean motion
14.83017931 rev/d
Perigee alt
601.3 km
Apogee alt
638.4 km
Semi-major
6,998.0 km
B*
7.2064e-5
RAAN
287.8623°
Arg perigee
208.4010°
Mean anomaly
151.5762°
Rev number
59,323

§ Raw data

GAOFEN-9 011 40894U 15047A   26256.18396617  .00000538  00000+0  72064-4 0  99922 40894  97.6224 287.8623 0026497 208.4010 151.5762 14.83017931593232

JSON: /api/v1/satellites/40894 · /tle

For live sub-satellite position, see the globe view (requires WebGL).

§ Visibility from observer

Set your observer location to see the next 7 days of passes ≥ 10°. The values pass through the URL so the page stays shareable.

No JS? Fill the form by hand. The geolocation button needs JavaScript.